Find Starlink 34839

NORAD ID: 65703 Int'l Des: 2025-212 Owner: SPXS Country: US Constellation: starlink operational
LEOCIRCULAR

Live-Position

3D-Globus wird geladen...

Über Starlink 34839

Beschreibung wird geladen...

Nächste Überflüge

Passes for default location (London). Set your location on the main map for personalized predictions.

Höhenverlauf

Loading altitude history...

Zweizeiliger Elementsatz

1 65703U 25212AD 26106.88324583 .00008315 00000-0 29250-3 0 9997
2 65703 53.1589 168.0846 0001259 81.5449 278.5695 15.30205265 33091
Epoch: 16. Apr. 2026 • Age: 10 hours

Aktueller Status

Höhe 480.7 km
Geschwindigkeit 7.63 km/s
Subsatellitenpunkt 52.46°N, 67.76°W
Startdatum 21. Sept. 2025
Alter 0.5 years
Typ internet

Technische Details

Klassifizierung Payload
Masse 575.00 kg
Trockenmasse 530.00 kg
Gesamtmasse 575.00 kg
Länge 0.30 m
Durchmesser 4.10 m
Spannweite 29.00 m
Form Box + pan
Hersteller SPXS
Bus-Typ Starlink V2MO
Phasenstatus In Orbit
Besitzer/Staat SPXS/US

Most Searched